CW3684 Weather Reports


Display with metric or nautical units.
time (UTC)temp
F
wind
direction
speed
MPH
gust
MPH
rain 1hr
in
rain 24hr
in
rain mn
in
humidity
%
barometer
mb
20260903223030 54 159 2.0 5.0 0.00 0.00 0.00 49 1018.3
20260903221526 53 84 3.0 7.0 0.00 0.00 0.00 52 1018.3
20260903220023 53 157 3.0 5.0 0.00 0.00 0.00 53 1018.6
20260903214534 52 105 2.0 4.0 0.00 0.00 0.00 53 1018.5
20260903213026 52 146 2.0 5.0 0.00 0.00 0.00 55 1018.7
20260903211516 51 90 1.0 5.0 0.00 0.00 0.00 58 1018.6
20260903210016 51 190 3.0 4.0 0.00 0.00 0.00 57 1018.7
20260903204510 50 219 1.0 4.0 0.00 0.00 0.00 58 1018.9
20260903203007 48 160 3.0 6.0 0.00 0.00 0.00 57 1019.1
20260903201501 47 271 1.0 5.0 0.00 0.00 0.00 59 1019.0
20260903200058 46 265 1.0 6.0 0.00 0.00 0.00 62 1018.9
20260903194555 45 173 3.0 7.0 0.00 0.00 0.00 66 1018.9
20260903193051 44 32 2.0 5.0 0.00 0.00 0.00 68 1018.8
20260903191546 42 132 1.0 5.0 0.00 0.00 0.00 72 1019.1
20260903190041 41 128 2.0 6.0 0.00 0.00 0.00 75 1019.2
20260903184548 39 82 0.0 4.0 0.00 0.00 0.00 74 1019.3
20260903183035 39 200 1.0 6.0 0.00 0.00 0.00 76 1019.3
20260903181531 39 123 3.0 7.0 0.00 0.00 0.00 79 1019.1
20260903180029 37 111 5.0 7.0 0.00 0.00 0.00 80 1019.2
20260903174535 36 107 2.0 6.0 0.00 0.00 0.00 80 1019.2
20260903173036 36 148 3.0 8.0 0.00 0.00 0.00 82 1019.2
20260903171526 36 113 4.0 8.0 0.00 0.00 0.00 86 1019.2
20260903170030 35 360 3.0 4.0 0.00 0.00 0.00 88 1019.2
20260903164524 34 360 2.0 5.0 0.00 0.00 0.00 91 1019.0
20260903163023 32 355 1.0 3.0 0.00 0.00 0.00 92 1018.7
20260903161519 32 355 0.0 1.0 0.00 0.00 0.00 91 1018.4
20260903160017 31 355 1.0 4.0 0.00 0.00 0.00 91 1018.0
20260903154516 31 355 1.0 3.0 0.00 0.00 0.00 91 1018.0
20260903153011 31 355 0.0 3.0 0.00 0.00 0.00 91 1018.3
20260903151508 31 355 0.0 3.0 0.00 0.00 0.00 91 1018.1
20260903150010 31 355 1.0 3.0 0.00 0.00 0.00 90 1018.1
20260903144504 31 355 0.0 0.0 0.00 0.00 0.00 89 1018.0
20260903143002 31 355 0.0 0.0 0.00 0.00 0.00 89 1017.9
20260903141606 31 355 0.0 0.0 0.00 0.00 0.00 89 1017.6
20260903140059 31 355 1.0 2.0 0.00 0.00 0.00 89 1017.7
20260903140002 31 355 0.0 2.0 0.00 0.00 0.00 89 1017.6
20260903134608 31 355 1.0 3.0 0.00 0.00 0.00 88 1017.3
20260903133108 31 355 0.0 2.0 0.00 0.00 0.00 88 1017.6
20260903131554 31 355 0.0 3.0 0.00 0.00 0.00 88 1017.3
20260903130123 31 355 2.0 3.0 0.00 0.00 0.00 87 1017.2
20260903124558 31 355 1.0 3.0 0.00 0.00 0.00 87 1017.0
20260903123049 32 355 2.0 3.0 0.00 0.00 0.00 86 1016.8
20260903121547 32 355 2.0 4.0 0.00 0.00 0.00 86 1016.6
20260903120043 32 315 3.0 6.0 0.00 0.00 0.00 86 1016.6
20260903114540 33 355 1.0 3.0 0.00 0.00 0.00 85 1016.4
20260903113038 33 355 1.0 2.0 0.00 0.00 0.00 84 1016.3
20260903111537 33 355 2.0 5.0 0.00 0.00 0.00 82 1016.4
20260903110041 34 355 2.0 3.0 0.00 0.00 0.00 82 1016.1
20260903104533 34 355 0.0 5.0 0.00 0.00 0.00 84 1016.1
20260903103031 33 355 2.0 4.0 0.00 0.00 0.00 83 1015.9
20260903101528 33 355 1.0 3.0 0.00 0.00 0.00 80 1016.0
20260903100025 33 355 0.0 0.0 0.00 0.00 0.00 77 1015.6
20260903094525 34 355 0.0 4.0 0.00 0.00 0.00 77 1015.6
20260903093019 35 355 3.0 4.0 0.00 0.00 0.00 74 1015.4
20260903091512 36 355 1.0 3.0 0.00 0.00 0.00 70 1015.0
20260903090013 37 355 1.0 2.0 0.00 0.00 0.00 68 1014.8
20260903084505 38 355 0.0 4.0 0.00 0.00 0.00 68 1014.9
20260903083001 38 355 2.0 7.0 0.00 0.00 0.00 69 1014.7
20260903081620 38 300 4.0 6.0 0.00 0.00 0.00 65 1014.7
20260903080055 38 302 3.0 6.0 0.00 0.00 0.00 62 1014.8
20260903074605 39 355 0.0 3.0 0.00 0.00 0.00 58 1014.5
20260903073113 39 302 1.0 5.0 0.00 0.00 0.00 57 1014.4
20260903071614 39 285 2.0 5.0 0.00 0.00 0.00 55 1014.3
20260903070047 40 286 6.0 9.0 0.00 0.00 0.00 57 1013.7
20260903064546 40 360 2.0 4.0 0.00 0.00 0.00 53 1013.7
20260903063048 41 299 3.0 6.0 0.00 0.00 0.00 57 1013.4
20260903061543 41 299 1.0 2.0 0.00 0.00 0.00 50 1013.3
20260903060109 42 299 3.0 7.0 0.00 0.00 0.00 56 1013.2
20260903054539 43 302 3.0 6.0 0.00 0.00 0.00 53 1013.0
20260903053035 44 288 5.0 7.0 0.00 0.00 0.00 51 1012.6
20260903051534 46 288 4.0 6.0 0.00 0.00 0.00 47 1012.5
20260903050034 47 288 3.0 7.0 0.00 0.00 0.00 42 1012.5
20260903044531 48 288 4.0 6.0 0.00 0.00 0.00 41 1012.2
20260903043031 50 281 4.0 9.0 0.00 0.00 0.00 40 1012.0
20260903041528 51 279 2.0 8.0 0.00 0.00 0.00 39 1011.9
20260903040047 51 281 4.0 9.0 0.00 0.00 0.00 38 1011.8
20260903034526 52 290 5.0 12.0 0.00 0.00 0.00 35 1011.7
20260903033023 53 288 5.0 11.0 0.00 0.00 0.00 33 1011.3
20260903031527 54 290 4.0 12.0 0.00 0.00 0.00 32 1011.1
20260903030020 54 287 5.0 13.0 0.00 0.00 0.00 32 1011.0
20260903024517 55 269 6.0 14.0 0.00 0.00 0.00 32 1010.8
20260903023016 55 288 5.0 12.0 0.00 0.00 0.00 34 1010.6
20260903021518 55 281 2.0 11.0 0.00 0.00 0.00 32 1010.4
20260903020012 56 290 4.0 12.0 0.00 0.00 0.00 32 1010.4
20260903014509 57 300 6.0 10.0 0.00 0.00 0.00 34 1010.2
20260903013007 57 244 4.0 7.0 0.00 0.00 0.00 48 1010.0
20260903011505 57 187 2.0 7.0 0.00 0.00 0.00 44 1009.9
20260903010006 57 155 1.0 3.0 0.00 0.00 0.00 45 1009.7
20260903004601 58 61 2.0 4.0 0.00 0.00 0.00 46 1009.7
20260903003059 58 85 2.0 7.0 0.00 0.00 0.00 47 1009.5
20260903001607 58 67 2.0 5.0 0.00 0.00 0.00 48 1009.3
20260903000059 58 95 4.0 10.0 0.00 0.00 0.00 51 1009.1
20260902234611 59 74 4.0 7.0 0.00 0.00 0.00 50 1009.2
20260902233051 59 15 3.0 7.0 0.00 0.00 0.00 52 1009.2
20260902231557 58 86 4.0 9.0 0.00 0.00 0.00 56 1009.0
20260902230044 57 61 1.0 8.0 0.00 0.00 0.00 55 1008.9
20260902224542 56 128 3.0 6.0 0.00 0.00 0.00 57 1008.9